Location: Belvedere Heights
(33.9836°N, 117.3109°W)
Time: 17:32:45
(UTC+00:00)

EO-79 - Visible Passes

Search period start: 26 May 2024 00:00
Search period end: 05 June 2024 00:00
Orbit: 562 x 575 km, 98.0° (Epoch: 25 May)

Date Brightness Start Highest point End Pass type
(mag) Time Alt. Az. Time Alt. Az. Time Alt. Az.
26 May ? 10:09:01 10° NE 10:12:01 20° E 10:13:28 17° ESE visible
26 May ? 11:43:41 10° NNW 11:46:59 24° WNW 11:49:34 14° WSW visible
27 May ? 10:10:21 10° NE 10:13:25 20° E 10:14:55 17° SE visible
27 May ? 11:45:07 10° NNW 11:48:22 24° WNW 11:51:00 13° WSW visible
28 May ? 10:11:41 10° NE 10:14:48 21° E 10:16:21 17° SE visible
28 May ? 11:46:31 10° NNW 11:49:43 23° WNW 11:52:26 12° WSW visible
29 May ? 10:13:00 10° NE 10:16:10 22° E 10:17:46 17° SE visible
29 May ? 11:47:55 10° NNW 11:51:05 22° WNW 11:53:51 12° WSW visible
30 May ? 10:14:18 10° NE 10:17:31 22° E 10:19:09 18° SE visible
30 May ? 11:49:19 10° NNW 11:52:25 22° WNW 11:55:15 11° WSW visible
31 May ? 10:15:36 10° NE 10:18:51 23° E 10:20:32 18° SE visible
31 May ? 11:50:41 10° NNW 11:53:44 21° WNW 11:56:37 11° WSW visible
01 Jun ? 10:16:52 10° NE 10:20:11 24° E 10:21:54 18° SE visible
01 Jun ? 11:52:03 10° NNW 11:55:03 20° WNW 11:57:59 10° WSW visible
02 Jun ? 10:18:09 10° NE 10:21:29 25° E 10:23:14 18° SE visible
02 Jun ? 11:53:24 10° NNW 11:56:21 20° WNW 11:59:16 10° WSW visible
03 Jun ? 10:19:24 10° NE 10:22:47 25° E 10:24:33 19° SE visible
03 Jun ? 11:54:44 10° NNW 11:57:37 19° WNW 12:00:30 10° WSW visible
04 Jun ? 10:20:38 10° NE 10:24:04 26° E 10:25:53 19° SE visible
04 Jun ? 11:56:03 10° NNW 11:58:53 19° WNW 12:01:42 10° WSW visible
